Location: Smithers
(54.7670°N, 127.1670°W)
Time: 03:16:11
(UTC-07:00)

Daily predictions for brighter satellites

Satellite Brightness Start Highest point End
(mag) Time Altitude Azimuth Time Altitude Azimuth Time Altitude Azimuth
Cosmos 1331 Rocket 4.1 00:03:34 10° NNW 00:08:44 68° WSW 00:12:41 17° SSE
Cosmos 1733 3.2 00:06:43 10° N 00:10:34 81° E 00:13:11 19° SSE
Cosmos 1821 Rocket 4.1 00:04:20 10° NNW 00:10:38 84° W 00:15:56 16° S
Cosmos 1110 Rocket 4.3 00:06:33 10° NNW 00:11:45 59° WSW 00:15:44 17° S
Cosmos 1048 Rocket 4.0 00:06:42 10° SSW 00:11:51 89° WNW 00:17:07 10° NNE
Terra 3.2 00:09:12 10° SSW 00:13:24 30° W 00:17:37 10° NNW
Cosmos 1953 Rocket 3.7 00:11:36 17° S 00:14:58 66° E 00:19:25 10° NNE
Cosmos 972 Rocket 4.1 00:10:11 10° NNW 00:15:31 67° WSW 00:19:16 17° S
Cosmos 1825 Rocket 3.5 00:12:11 15° S 00:15:44 87° E 00:20:05 10° NNE
Cosmos 1833 Rocket 3.2 00:10:56 10° SW 00:16:32 64° NW 00:22:10 10° NNE
Cosmos 1302 Rocket 4.0 00:11:58 10° NNW 00:17:16 90° NE 00:21:23 17° SSE
Cosmos 1953 3.1 00:19:36 10° NNW 00:23:32 46° W 00:26:33 16° SSW
CZ-2C R/B 3.4 00:20:17 16° SSE 00:24:42 72° ENE 00:30:28 10° NNW
ALOS 2 2.8 00:21:51 18° SSE 00:25:03 64° ENE 00:29:26 10° N
ISS -3.6 00:22:47 10° WSW 00:25:59 49° S 00:29:11 10° ESE
Cosmos 2322 3.9 00:22:29 10° NNW 00:28:10 69° NE 00:33:14 13° SE
Cosmos 1378 4.1 00:30:05 20° SSE 00:32:07 35° E 00:35:34 10° NNE
Cosmos 1605 Rocket 4.0 00:27:17 10° N 00:33:26 83° E 00:38:09 18° SSE
Cosmos-2242 3.1 00:30:50 10° NNW 00:35:10 73° W 00:38:03 20° S
SeaSat 1 2.5 00:33:27 18° SSE 00:37:13 78° WSW 00:42:12 10° NW
Lacrosse 5 2.9 00:35:59 19° SSE 00:38:07 25° SE 00:42:15 10° ENE
USA 267 4.0 00:32:24 10° ENE 00:38:09 32° SE 00:42:34 16° S
Cosmos 2360 Rocket 2.2 00:36:06 10° NNW 00:41:49 89° WSW 00:46:21 17° SSE
Cosmos 1980 Rocket 4.0 00:38:12 10° NW 00:42:10 20° W 00:46:07 10° SW
COSMOS 2428 3.3 00:40:20 10° NNW 00:46:02 58° NE 00:51:42 10° SE
Cosmos 2251 Rocket 3.7 00:42:35 18° S 00:46:36 62° ESE 00:51:56 10° NNE
Cosmos 2098 Rocket 3.3 00:44:45 10° NNW 00:49:04 80° W 00:52:54 19° S
Lacrosse 5 rocket 2.5 00:45:08 10° WNW 00:49:16 32° SW 00:51:30 21° S
Meteor 2-5 Rocket 4.0 00:45:11 18° S 00:49:34 62° E 00:55:25 10° NNE
Cosmos 1470 3.6 00:45:51 10° NNW 00:49:38 42° W 00:52:14 18° SSW
CZ-4B R/B 2.9 00:50:23 14° ESE 00:52:32 28° ENE 00:55:19 10° N
Cosmos 2322 Rocket 3.0 00:48:49 10° NW 00:54:03 38° WSW 00:57:49 17° SSW
CZ-4C R/B 3.6 00:53:51 19° SE 00:56:17 53° ENE 00:59:52 10° N
Cosmos 2221 3.3 00:52:35 10° N 00:56:42 43° ENE 00:59:51 16° SE
Meteor 1-16 Rocket 4.2 00:51:50 10° NNW 00:57:11 72° W 01:01:06 20° S
Cosmos 1707 2.7 01:01:54 21° SSW 01:04:22 79° WNW 01:08:16 10° N
SAR-Lupe-2 3.8 01:06:55 21° SSE 01:09:09 62° ENE 01:12:44 10° N
Cosmos 1459 Rocket 4.2 01:04:30 10° N 01:10:53 70° ENE 01:15:58 17° SSE
CZ-2C R/B 2.7 01:06:24 10° NNE 01:12:05 81° ESE 01:16:13 19° SSW
USA 234 3.3 01:10:38 10° SE 01:17:09 65° SSW 01:23:40 10° WNW
Cosmos 2333 Rocket 2.9 01:12:37 10° NNW 01:18:16 53° NE 01:23:50 10° SE
USA 32 4.1 01:15:06 19° SSW 01:18:57 75° W 01:24:15 10° N
ATLAS 2AS CENTAUR R/B 3.1 01:13:27 10° NW 01:21:40 89° SW 01:29:26 10° SE
Cosmos 494 Rocket 4.1 01:17:10 13° SW 01:21:42 72° WNW 01:26:55 10° NNE
ATLAS CENTAUR R/B 3.3 01:20:55 10° W 01:22:32 12° WSW 01:23:20 12° SW
Cosmos 1842 Rocket 4.0 01:18:49 10° NNW 01:23:13 55° W 01:26:02 21° SSW
Cosmos 2219 Rocket 2.6 01:19:12 10° NNW 01:24:53 65° NE 01:30:32 10° SE
Meteor 1-24 Rocket 4.0 01:20:52 19° S 01:25:15 73° E 01:31:18 10° NNE
Cosmos 2082 Rocket 4.1 01:21:35 10° W 01:26:29 29° NW 01:31:24 10° NNE
Cosmos 1674 4.2 01:25:30 15° SE 01:27:48 26° E 01:31:04 10° NNE
Cosmos 1689 Rocket 2.4 01:26:32 24° SSE 01:28:14 64° ENE 01:31:19 10° N
Cosmos 1726 3.9 01:27:26 10° N 01:30:43 27° ENE 01:33:59 10° SE
Cosmos 1802 Rocket 4.1 01:25:24 10° N 01:31:46 81° ENE 01:36:39 17° SSE
ARGOS Delta rocket 4.4 01:28:28 10° N 01:33:41 66° WNW 01:37:58 16° SSW
Cosmos 2016 Rocket 4.2 01:27:49 10° N 01:34:14 74° ENE 01:39:27 16° SSE
Meteor 2-17 Rocket 4.4 01:28:58 10° NNW 01:35:06 88° W 01:39:46 18° S
Cosmos 2100 Rocket 4.0 01:29:18 10° NNW 01:35:29 81° W 01:40:07 19° S
Cosmos 1300 4.3 01:39:58 10° N 01:43:24 30° ENE 01:46:50 10° SE
Cosmos 2237 Rocket 2.8 01:39:11 10° NNW 01:44:46 57° NE 01:50:19 10° SE
SL-16 R/B 4.0 01:42:18 10° WNW 01:45:56 18° W 01:49:08 11° SW
SL-16 R/B 3.8 01:40:53 10° NNW 01:46:07 35° NE 01:51:19 10° ESE
SL-16 R/B 4.4 01:49:31 10° ESE 01:54:35 27° NE 01:59:40 10° N
Cosmos 2061 Rocket 4.1 01:48:44 10° NNW 01:54:56 71° W 01:59:38 18° S
H-2A R/B 3.2 01:53:20 10° NNE 01:57:24 44° E 02:00:16 19° SSE
Cosmos 2228 Rocket 3.9 01:55:06 10° N 01:59:28 48° ENE 02:03:32 12° SSE
ALOS 2 4.4 01:59:14 13° SW 02:01:49 20° W 02:05:05 10° NW
ISS -2.9 01:59:13 10° W 02:02:08 28° SSW 02:02:45 26° S
Cosmos 407 Rocket 4.5 01:58:47 16° SSE 02:02:15 35° ESE 02:06:54 10° NE
In-Cosmos 22 4.2 02:00:59 19° SSW 02:04:59 82° WNW 02:10:37 10° NNE
Cosmos 1184 Rocket 2.8 02:06:02 25° S 02:07:48 73° ESE 02:11:07 10° NNE
Intercosmos 25 4.3 02:05:21 10° NNW 02:08:13 27° W 02:09:43 19° SW
Cosmos 2227 Rocket 4.0 02:04:55 10° SE 02:08:53 20° E 02:12:52 10° NE
Cosmos 2123 Rocket 4.3 02:04:52 16° S 02:09:46 62° E 02:15:52 10° NNE
Cosmos 2233 Rocket 4.3 02:08:38 10° N 02:14:59 68° ENE 02:21:09 11° SSE
SeaSat 1 4.3 02:13:14 13° SW 02:15:29 17° WSW 02:18:37 10° WNW
Cosmos 1340 Rocket 2.7 02:13:15 22° SSW 02:15:45 88° WNW 02:19:44 10° NNE
Lacrosse 5 1.8 02:15:28 10° WSW 02:20:32 74° SSE 02:25:37 10° ENE
USA 267 3.2 02:15:20 10° ENE 02:21:54 73° SSE 02:28:27 10° WSW
Okean 3 Rocket 3.8 02:18:48 19° SSW 02:22:00 66° WNW 02:26:34 10° N
Cosmos 1190 Rocket 4.4 02:18:18 18° S 02:22:08 55° ESE 02:27:19 10° NNE
Meteor 1-21 Rocket 4.4 02:20:08 18° S 02:24:43 81° E 02:30:34 10° NNE
ERBS 4.0 02:24:04 17° SSE 02:24:57 18° SE 02:27:22 10° E
Cosmos 1833 4.4 02:20:07 14° SW 02:25:06 72° NW 02:30:51 10° NNE
Cosmos 2360 Rocket 3.7 02:21:03 10° NW 02:25:07 20° W 02:28:06 14° SW
CZ-4B R/B 2.7 02:23:58 19° SW 02:25:15 24° W 02:27:55 10° NW
Cosmos 1455 4.4 02:22:33 10° N 02:25:45 24° ENE 02:28:57 10° ESE
Cosmos 1356 Rocket 3.6 02:24:20 19° S 02:27:07 60° E 02:31:11 10° NNE
Cosmos 1408 Rocket 3.6 02:25:07 19° S 02:28:12 77° E 02:32:32 10° NNE
Cosmos 2084 Rocket 3.3 02:25:31 13° SW 02:29:03 82° NW 02:32:56 10° NE
Cosmos 1725 Rocket 4.1 02:23:16 10° NNW 02:29:35 70° W 02:34:48 15° S
NOSS 0 Rocket 4.0 02:23:57 10° NW 02:30:06 65° WSW 02:36:14 10° SSE
COSMOS 2428 3.5 02:24:57 10° NW 02:30:07 36° WSW 02:33:53 17° SSW
Cosmos 1908 4.2 02:27:53 10° NNW 02:31:30 35° W 02:33:48 19° SSW
Cosmos 2219 3.3 02:28:18 18° SSW 02:32:33 66° ESE 02:38:09 10° NE
Cosmos 2221 3.9 02:30:31 10° NNW 02:34:07 26° W 02:36:43 15° SW
Cosmos 1766 Rocket 3.5 02:33:21 19° SSW 02:36:30 88° W 02:40:54 10° NNE
PSLV R/B 3.9 02:37:10 14° SSE 02:40:41 90° ENE 02:44:47 10° NNW
SL-08 R/B 3.9 02:37:02 10° SSE 02:41:54 60° ENE 02:46:48 10° N
Cosmos 1242 Rocket 3.1 02:40:32 10° NNW 02:43:53 40° W 02:46:02 19° SSW
Cosmos 2208 Rocket 4.3 02:41:07 10° NNW 02:46:19 70° ENE 02:51:32 10° SE
Cosmos 1626 4.0 02:44:58 10° SE 02:48:02 24° E 02:51:05 10° NE
Cosmos 1515 Rocket 3.5 02:44:25 10° NNW 02:48:53 79° W 02:52:40 14° S
Geosat 4.2 02:43:51 10° NNE 02:48:53 73° NW 02:53:24 13° SW
PSLV R/B 3.5 02:45:42 10° NNE 02:49:59 83° ESE 02:53:15 17° SSW
Meteor 1-27 4.4 02:45:27 10° NNW 02:51:17 81° ENE 02:57:08 10° SSE
CZ-2C R/B 4.4 02:47:20 10° N 02:51:49 25° NW 02:56:16 10° WSW
Meteor 2-2 Rocket 4.4 02:49:35 10° NNW 02:55:07 57° W 02:59:53 14° S
CZ-3A R/B -0.4 02:54:05 11° W 02:55:27 69° SSW 02:58:41 10° ESE
Cosmos 1743 Rocket 3.7 02:53:53 15° S 02:57:32 77° E 03:01:58 10° NNE
Aureole 2 Rocket 3.0 02:54:14 10° NW 02:58:07 54° WSW 03:01:49 12° S
USA 234 4.2 02:55:51 11° S 03:01:02 26° SW 03:06:24 10° WNW
Cosmos 2333 Rocket 2.8 02:57:08 10° NW 03:02:26 39° WSW 03:07:13 12° S
Cosmos 1674 3.7 03:00:24 14° SW 03:03:18 36° WNW 03:06:54 10° N
Cosmos 1076 Rocket 4.5 03:00:12 14° SW 03:03:37 38° WNW 03:07:43 10° N
Cosmos 1726 3.1 03:02:39 10° NNW 03:06:06 33° W 03:08:37 16° SSW
Cosmos 1140 Rocket 4.0 03:02:03 13° S 03:06:33 53° ESE 03:11:37 10° NE
Cosmos 1703 4.4 03:03:13 10° SSE 03:06:52 38° E 03:10:33 10° NNE
Cosmos 2219 Rocket 3.1 03:03:36 10° NW 03:08:32 31° WSW 03:12:43 13° SSW
Cosmos 2151 3.3 03:04:58 12° S 03:08:45 61° E 03:12:58 10° NNE
Cosmos 1980 4.1 03:04:50 10° NW 03:10:12 44° WSW 03:15:32 10° S
ATLAS 2AS CENTAUR R/B 3.8 03:05:03 10° NW 03:11:57 32° WSW 03:18:29 10° S
NOSS 3-4 (A) 3.8 03:06:42 10° NW 03:13:34 81° SW 03:20:55 10° SE
NOSS 3-4 (C) 3.8 03:06:48 10° NW 03:13:41 82° SW 03:21:02 10° SE
Cosmos 2297 Rocket 3.0 03:09:18 11° S 03:14:25 43° ESE 03:19:45 10° NE
BREEZE-M DEB (TANK) 4.3 03:11:50 10° W 03:16:20 59° S 03:38:00 10° ESE
SL-14 R/B 3.4 03:13:45 14° SSW 03:17:08 74° WNW 03:21:14 10° N
Cosmos 1300 3.7 03:15:42 10° NNW 03:19:08 31° W 03:21:53 14° SSW
Cosmos 1151 Rocket 3.3 03:16:37 10° NNW 03:20:51 52° W 03:24:47 12° S
NPP 3.9 03:17:29 10° NNE 03:22:53 66° ESE 03:28:14 10° S
NOSS 3-3 (A) 4.2 03:20:33 12° SSW 03:26:20 68° SE 03:33:13 10° NE
NOSS 3-3 (C) 4.2 03:20:40 12° SSW 03:26:27 68° SE 03:33:17 10° NE
Cosmos 2237 Rocket 2.9 03:23:34 10° NW 03:28:39 35° WSW 03:33:42 10° S
SL-8 R/B 4.4 03:25:48 10° SW 03:30:04 35° SSE 03:34:25 10° ESE
SL-16 R/B 2.2 03:25:01 10° NW 03:30:40 67° WSW 03:36:18 10° SSE
Helios 1A Rocket 3.3 03:27:18 10° N 03:31:25 58° WNW 03:35:14 12° SSW
H-2A R/B 3.9 03:29:11 10° N 03:32:50 29° WNW 03:36:35 10° WSW
NOSS 2-1 (E) 4.2 03:31:59 12° SSW 03:35:27 43° SE 03:39:57 10° NE
CBERS-1 4.2 03:30:32 10° NNE 03:35:41 76° ESE 03:40:48 10° S
Cosmos 2228 Rocket 4.4 03:33:45 10° NNW 03:37:27 26° W 03:41:00 11° SW
SL-16 R/B 2.6 03:31:27 10° SSE 03:37:38 84° WSW 03:43:53 10° NNW
Cosmos 1570 Rocket 4.3 03:33:08 10° NW 03:38:19 49° WSW 03:43:27 10° S
Resurs 1-4 Rocket 3.0 03:34:01 10° NNE 03:39:09 46° E 03:44:15 10° S
ARIANE 5 R/B 3.5 03:37:45 10° NNE 03:42:40 44° E 03:47:29 10° S
Cosmos 1954 Rocket 4.1 03:38:21 11° SSW 03:43:28 75° WNW 03:48:44 10° NNE
Cosmos 407 Rocket 4.1 03:39:09 10° SW 03:44:09 48° NW 03:49:09 10° NNE
Cosmos 2034 Rocket 4.1 03:41:37 10° NNW 03:47:59 80° W 03:54:22 10° S
Cosmos 2058 3.0 03:44:37 10° SSW 03:48:41 67° WNW 03:52:50 10° N
Cosmos 1707 Rocket 3.5 03:45:06 10° NNW 03:49:30 83° W 03:53:54 10° S
Cosmos 2227 Rocket 2.3 03:46:31 10° SSW 03:52:13 88° ESE 03:57:56 10° NNE
COBE Rocket 4.2 03:48:08 10° NNE 03:52:49 61° E 03:57:24 10° S
Cosmos 1943 4.2 03:51:07 10° NNW 03:56:38 53° NE 04:02:09 10° SE
Cosmos 2242 Rocket 4.1 03:52:59 10° N 03:57:27 65° ENE 04:01:56 10° SSE
UNK 3.8 03:53:02 10° S 03:57:36 63° WSW 04:02:14 10° NNW
ERBS 2.3 03:57:48 10° WSW 04:01:11 73° SSE 04:04:35 10° ENE
CZ-2D R/B 2.5 03:56:04 10° NNE 04:01:16 64° ESE 04:06:29 10° S
Cosmos 1455 2.8 03:57:57 10° NNW 04:01:38 42° W 04:05:18 10° SSW
Lacrosse 5 2.3 03:58:36 10° W 04:03:41 69° N 04:08:45 10° E
USA 267 3.5 03:58:28 10° ENE 04:05:01 77° N 04:11:34 10° W
USA 161 3.0 04:04:07 10° SE 04:05:46 24° ENE 04:07:26 10° N
MOZ.5/SAFIR/RUBIN 5/SL-8 4.0 04:02:17 10° SSE 04:07:03 79° ENE 04:11:53 10° NNW
Cosmos 1862 Rocket 4.3 04:04:12 10° N 04:08:30 55° ENE 04:12:45 10° SSE
Meteor 2-10 Rocket 4.2 04:06:02 10° N 04:11:01 58° ENE 04:15:58 10° SSE
Cosmos 1666 Rocket 3.9 04:06:42 10° S 04:11:08 72° E 04:15:36 10° NNE
NOSS 7 (D) 4.5 04:11:18 10° SW 04:14:36 73° SE 04:18:08 10° NE
Tsikada Rocket 4.3 04:08:35 10° S 04:14:59 79° E 04:21:26 10° NNE
IRS-1C 4.3 04:10:49 10° NNE 04:16:10 71° WNW 04:21:28 10° SSW
Cosmos 841 Rocket 3.7 04:11:24 10° NNW 04:16:45 84° ENE 04:22:02 10° SSE
Cosmos 2219 4.4 04:12:00 10° WSW 04:17:08 35° NW 04:22:18 10° NNE
